Location: Hains Lake
(37.8540°N, 99.8578°W)
Time: 22:48:58
(UTC+00:00)

deb Explorer IX - Pass Details

Date: 25 April 2021
Orbit: 541 x 1098 km, 38.8° (Epoch: 13 May)

Event Time Altitude Azimuth Distance (km) Brightness Sun altitude
Rises 10:38:57 0° 227° (SW) 2,744 - -13.8°
Reaches altitude 10° 10:41:24 10° 217° (SW) 1,814 - -13.3°
Exits shadow 10:42:29 16° 209° (SSW) 1,439 ? -13.2°
Maximum altitude 10:45:04 32° 153° (SSE) 931 ? -12.7°
Drops below altitude 10° 10:48:44 10° 89° (E) 1,807 ? -12.1°
Sets 10:51:10 0° 80° (E) 2,732 ? -11.6°
